concours-fonction-publique.gov.dz alexa rank chart, concours-fonction-publique.gov.dz alexa rank daily changes

concours-fonction-publique.gov.dz alexa rank chart, concours-fonction-publique.gov.dz alexa rank daily changes

concours-fonction-publique.gov.dz
Actual rank:
105 826

RANK HISTORY

Date Rank Diff
2017/05/25 105 826 +1 250
2017/05/24 104 576 -727
2017/05/23 105 303 -2 672
2017/05/22 107 975 -201
2017/05/21 108 176 +565
2017/05/20 107 611 +421
2017/05/19 107 190 +781
2017/05/18 106 409 +976
2017/05/17 105 433 -2 139
2017/05/16 107 572 -3 419
2017/05/15 110 991 +295
2017/05/14 110 696 +1 111
2017/05/13 109 585 +1 401
2017/05/12 108 184 +71
2017/05/11 108 113 -441
2017/05/10 108 554 -1 574
2017/05/09 110 128 -3 292
2017/05/08 113 420 -571
2017/05/07 113 991 +2 357
2017/05/06 111 634 +602
2017/05/05 111 032 -461
2017/05/04 111 493 -533
2017/05/03 112 026 -199
2017/05/02 112 225 -3 039
2017/05/01 115 264 -520
2017/04/30 115 784 +1 765
2017/04/29 114 019 -452
2017/04/28 114 471 +248
2017/04/27 114 223 -1 100
2017/04/26 115 323 -1 625
2017/04/25 116 948 -2 375
2017/04/24 119 323 +1 351
2017/04/23 117 972 +851
2017/04/22 117 121 +119
2017/04/21 117 002 +1 625
2017/04/20 115 377 -689
2017/04/19 116 066 -2 349
2017/04/18 118 415 -1 447
2017/04/17 119 862 +1 011
2017/04/16 118 851 +1 334
2017/04/15 117 517 -565
2017/04/14 118 082 -444
2017/04/13 118 526 -3 803
2017/04/12 122 329 -859
2017/04/11 123 188 -1 409
2017/04/10 124 597 -542
2017/04/09 125 139 +1 510
2017/04/08 123 629 +988
2017/04/07 122 641 -262
2017/04/06 122 903 +45
2017/04/05 122 858 -2 005
2017/04/04 124 863 +5
2017/04/03 124 858 +1 890
2017/04/02 122 968 +2 984
2017/04/01 119 984 +651
2017/03/31 119 333 +944
2017/03/30 118 389 -837
2017/03/29 119 226 +2 054
2017/03/28 117 172 +425
2017/03/27 116 747

WIDGET FOR YOUR SITE

DOMAINS WITH THE NEAREST RANK

Domain Rank
audiokinetic.com 105 821
4wei.cn 105 822
cmdsport.com 105 823
aunege.fr 105 824
grouppornotube.com 105 825
concours-fonction-publique.gov.dz 105 826
guias-viajar.com 105 827
tradetracker.net 105 828
footfetishtube.com 105 829
lalilali.com 105 830
pbprog.ru 105 831

DOMAINS WITH THE NEAREST RANK BY TLD .gov.dz

Domain Rank
concours-fonction-publique.gov.dz 105 826